Time,TemperatureF,DewpointF,PressureIn,WindDirection,WindDirectionDegrees,WindSpeedMPH,WindSpeedGustMPH,Humidity,HourlyPrecipIn,Conditions,Clouds,dailyrainin,SoftwareType,DateUTC
2013-03-26 00:00:00,34.5,24.3,29.88,North,0,3.0,4.0,66,0.00,,,0.00,meteohub,2013-03-26 04:00:00,
2013-03-26 00:01:00,34.5,24.3,29.88,North,0,3.0,3.0,66,0.00,,,0.00,meteohub,2013-03-26 04:01:00,
2013-03-26 00:06:00,34.5,24.3,29.88,North,0,3.0,3.0,66,0.00,,,0.00,meteohub,2013-03-26 04:06:00,
2013-03-26 00:11:00,34.5,24.3,29.88,North,0,6.0,6.0,66,0.00,,,0.00,meteohub,2013-03-26 04:11:00,
2013-03-26 00:17:00,34.3,24.4,29.88,NW,315,4.0,6.0,67,0.00,,,0.00,meteohub,2013-03-26 04:17:00,
2013-03-26 00:22:00,34.3,24.4,29.89,North,0,4.0,6.0,67,0.00,,,0.00,meteohub,2013-03-26 04:22:00,
2013-03-26 00:27:00,34.2,24.6,29.88,NE,45,3.0,6.0,68,0.00,,,0.00,meteohub,2013-03-26 04:27:00,
2013-03-26 00:32:00,34.2,25.0,29.89,West,270,2.0,4.0,69,0.00,,,0.00,meteohub,2013-03-26 04:32:00,
2013-03-26 00:37:00,34.0,24.8,29.89,NW,315,4.0,4.0,69,0.00,,,0.00,meteohub,2013-03-26 04:37:00,
2013-03-26 00:42:00,34.0,25.2,29.88,North,0,4.0,4.0,70,0.00,,,0.00,meteohub,2013-03-26 04:42:00,
2013-03-26 00:47:00,34.0,25.5,29.89,North,0,1.0,4.0,71,0.00,,,0.00,meteohub,2013-03-26 04:47:00,
2013-03-26 00:52:00,33.8,25.3,29.88,NW,315,4.0,4.0,71,0.00,,,0.00,meteohub,2013-03-26 04:52:00,
2013-03-26 00:57:00,33.8,25.7,29.88,NW,315,4.0,5.0,72,0.00,,,0.00,meteohub,2013-03-26 04:57:00,
2013-03-26 01:02:00,33.8,25.7,29.88,NW,315,3.0,5.0,72,0.00,,,0.00,meteohub,2013-03-26 05:02:00,
2013-03-26 01:07:00,33.8,25.7,29.88,North,0,3.0,4.0,72,0.00,,,0.00,meteohub,2013-03-26 05:07:00,
2013-03-26 01:12:00,33.8,25.7,29.88,North,0,2.0,4.0,72,0.00,,,0.00,meteohub,2013-03-26 05:12:00,
2013-03-26 01:17:00,33.8,25.7,29.89,North,0,2.0,4.0,72,0.00,,,0.00,meteohub,2013-03-26 05:17:00,
2013-03-26 01:22:00,33.6,25.9,29.89,NE,45,2.0,4.0,73,0.00,,,0.00,meteohub,2013-03-26 05:22:00,
2013-03-26 01:27:00,33.6,25.9,29.88,North,0,3.0,4.0,73,0.00,,,0.00,meteohub,2013-03-26 05:27:00,
2013-03-26 01:33:00,33.4,25.7,29.89,North,0,3.0,3.0,73,0.00,,,0.00,meteohub,2013-03-26 05:33:00,
2013-03-26 01:38:00,33.4,26.1,29.89,NE,45,3.0,4.0,74,0.00,,,0.00,meteohub,2013-03-26 05:38:00,
2013-03-26 01:43:00,33.4,26.1,29.89,North,0,2.0,4.0,74,0.00,,,0.00,meteohub,2013-03-26 05:43:00,
2013-03-26 01:49:00,33.4,26.1,29.89,North,0,2.0,4.0,74,0.00,,,0.00,meteohub,2013-03-26 05:49:00,
2013-03-26 01:54:00,33.4,26.1,29.89,NW,315,3.0,4.0,74,0.00,,,0.00,meteohub,2013-03-26 05:54:00,
2013-03-26 01:59:00,33.3,25.9,29.89,North,0,2.0,4.0,74,0.00,,,0.00,meteohub,2013-03-26 05:59:00,
2013-03-26 02:04:00,33.3,25.9,29.89,NW,315,3.0,4.0,74,0.00,,,0.00,meteohub,2013-03-26 06:04:00,
2013-03-26 02:09:00,33.3,25.9,29.89,NW,315,4.0,4.0,74,0.00,,,0.00,meteohub,2013-03-26 06:09:00,
2013-03-26 02:14:00,33.1,25.7,29.89,NW,315,3.0,4.0,74,0.00,,,0.00,meteohub,2013-03-26 06:14:00,
2013-03-26 02:20:00,33.1,25.7,29.89,North,0,2.0,4.0,74,0.00,,,0.00,meteohub,2013-03-26 06:20:00,
2013-03-26 02:25:00,32.9,25.5,29.89,North,0,2.0,4.0,74,0.00,,,0.00,meteohub,2013-03-26 06:25:00,
2013-03-26 02:30:00,32.9,25.5,29.89,NW,315,3.0,4.0,74,0.00,,,0.00,meteohub,2013-03-26 06:30:00,
2013-03-26 02:35:00,32.9,25.2,29.90,NW,315,2.0,4.0,73,0.00,,,0.00,meteohub,2013-03-26 06:35:00,
2013-03-26 02:40:00,32.9,25.2,29.90,NW,315,3.0,4.0,73,0.00,,,0.00,meteohub,2013-03-26 06:40:00,
2013-03-26 02:45:00,32.7,25.0,29.90,NW,315,2.0,4.0,73,0.00,,,0.00,meteohub,2013-03-26 06:45:00,
2013-03-26 02:51:00,32.7,25.0,29.90,North,0,4.0,4.0,73,0.00,,,0.00,meteohub,2013-03-26 06:51:00,
2013-03-26 02:56:00,32.7,25.0,29.90,North,0,3.0,4.0,73,0.00,,,0.00,meteohub,2013-03-26 06:56:00,
2013-03-26 03:02:00,32.7,25.0,29.90,NNW,338,2.0,4.0,73,0.00,,,0.00,meteohub,2013-03-26 07:02:00,
2013-03-26 03:07:00,32.7,24.6,29.90,North,0,2.0,4.0,72,0.00,,,0.00,meteohub,2013-03-26 07:07:00,
2013-03-26 03:12:00,32.7,24.6,29.90,NW,315,0.0,4.0,72,0.00,,,0.00,meteohub,2013-03-26 07:12:00,
2013-03-26 03:17:00,32.7,24.6,29.90,NW,315,3.0,4.0,72,0.00,,,0.00,meteohub,2013-03-26 07:17:00,
2013-03-26 03:22:00,32.7,24.6,29.90,North,0,3.0,4.0,72,0.00,,,0.00,meteohub,2013-03-26 07:22:00,
2013-03-26 03:27:00,32.9,24.8,29.90,North,0,2.0,3.0,72,0.00,,,0.00,meteohub,2013-03-26 07:27:00,
2013-03-26 03:32:00,32.9,24.6,29.90,NW,315,0.0,4.0,71,0.00,,,0.00,meteohub,2013-03-26 07:32:00,
2013-03-26 03:37:00,33.1,24.6,29.90,North,0,4.0,4.0,71,0.00,,,0.00,meteohub,2013-03-26 07:37:00,
2013-03-26 03:43:00,33.1,24.6,29.90,NW,315,2.0,4.0,71,0.00,,,0.00,meteohub,2013-03-26 07:43:00,
2013-03-26 03:48:00,32.9,24.8,29.90,North,0,3.0,4.0,72,0.00,,,0.00,meteohub,2013-03-26 07:48:00,
2013-03-26 03:53:00,32.9,24.8,29.90,West,270,2.0,4.0,72,0.00,,,0.00,meteohub,2013-03-26 07:53:00,
2013-03-26 03:58:00,32.9,25.2,29.90,North,0,2.0,4.0,73,0.00,,,0.00,meteohub,2013-03-26 07:58:00,
2013-03-26 04:04:00,32.9,25.2,29.90,NW,315,2.0,4.0,73,0.00,,,0.00,meteohub,2013-03-26 08:04:00,
2013-03-26 04:09:00,32.9,24.8,29.90,North,0,2.0,4.0,72,0.00,,,0.00,meteohub,2013-03-26 08:09:00,
2013-03-26 04:14:00,32.9,24.8,29.90,NW,315,3.0,3.0,72,0.00,,,0.00,meteohub,2013-03-26 08:14:00,
2013-03-26 04:19:00,33.1,24.6,29.90,NW,315,2.0,3.0,71,0.00,,,0.00,meteohub,2013-03-26 08:19:00,
2013-03-26 04:24:00,33.1,24.6,29.90,NW,315,4.0,4.0,71,0.00,,,0.00,meteohub,2013-03-26 08:24:00,
2013-03-26 04:30:00,33.1,24.6,29.90,North,0,3.0,4.0,71,0.00,,,0.00,meteohub,2013-03-26 08:30:00,
2013-03-26 04:35:00,33.1,24.4,29.90,North,0,3.0,4.0,70,0.00,,,0.00,meteohub,2013-03-26 08:35:00,
2013-03-26 04:40:00,33.1,24.4,29.91,NW,315,3.0,4.0,70,0.00,,,0.00,meteohub,2013-03-26 08:40:00,
2013-03-26 04:45:00,33.1,24.4,29.90,NW,315,4.0,4.0,70,0.00,,,0.00,meteohub,2013-03-26 08:45:00,
2013-03-26 04:50:00,33.1,24.4,29.90,NW,315,0.0,4.0,70,0.00,,,0.00,meteohub,2013-03-26 08:50:00,
2013-03-26 04:55:00,32.9,24.3,29.91,North,0,3.0,4.0,70,0.00,,,0.00,meteohub,2013-03-26 08:55:00,
2013-03-26 05:01:00,32.9,24.3,29.90,NW,315,2.0,4.0,70,0.00,,,0.00,meteohub,2013-03-26 09:01:00,
2013-03-26 05:06:00,32.9,24.3,29.90,NW,315,0.0,3.0,70,0.00,,,0.00,meteohub,2013-03-26 09:06:00,
2013-03-26 05:12:00,32.9,24.3,29.91,NW,315,0.0,4.0,70,0.00,,,0.00,meteohub,2013-03-26 09:12:00,
2013-03-26 05:17:00,32.7,24.1,29.91,North,0,2.0,4.0,70,0.00,,,0.00,meteohub,2013-03-26 09:17:00,
2013-03-26 05:22:00,32.7,24.1,29.91,NE,45,4.0,4.0,70,0.00,,,0.00,meteohub,2013-03-26 09:22:00,
2013-03-26 05:27:00,32.7,24.1,29.91,NW,315,0.0,4.0,70,0.00,,,0.00,meteohub,2013-03-26 09:27:00,
2013-03-26 05:32:00,32.7,24.1,29.91,North,0,2.0,4.0,70,0.00,,,0.00,meteohub,2013-03-26 09:32:00,
2013-03-26 05:37:00,32.7,24.1,29.91,North,0,3.0,4.0,70,0.00,,,0.00,meteohub,2013-03-26 09:37:00,
2013-03-26 05:42:00,32.7,24.1,29.91,NW,315,2.0,4.0,70,0.00,,,0.00,meteohub,2013-03-26 09:42:00,
2013-03-26 05:47:00,32.7,24.1,29.92,West,270,2.0,4.0,70,0.00,,,0.00,meteohub,2013-03-26 09:47:00,
2013-03-26 05:52:00,32.5,23.9,29.92,NW,315,2.0,4.0,70,0.00,,,0.00,meteohub,2013-03-26 09:52:00,
2013-03-26 05:58:00,32.5,23.9,29.92,North,0,2.0,3.0,70,0.00,,,0.00,meteohub,2013-03-26 09:58:00,
2013-03-26 06:03:00,32.5,23.9,29.92,NW,315,2.0,3.0,70,0.00,,,0.00,meteohub,2013-03-26 10:03:00,
2013-03-26 06:08:00,32.5,23.9,29.92,North,0,2.0,3.0,70,0.00,,,0.00,meteohub,2013-03-26 10:08:00,
2013-03-26 06:13:00,32.5,23.9,29.92,North,0,4.0,4.0,70,0.00,,,0.00,meteohub,2013-03-26 10:13:00,
2013-03-26 06:18:00,32.5,23.9,29.92,North,0,3.0,4.0,70,0.00,,,0.00,meteohub,2013-03-26 10:18:00,
2013-03-26 06:23:00,32.5,24.3,29.93,North,0,1.0,4.0,71,0.00,,,0.00,meteohub,2013-03-26 10:23:00,
2013-03-26 06:29:00,32.5,24.3,29.93,North,0,1.0,4.0,71,0.00,,,0.00,meteohub,2013-03-26 10:29:00,
2013-03-26 06:34:00,32.5,24.3,29.93,NE,45,2.0,4.0,71,0.00,,,0.00,meteohub,2013-03-26 10:34:00,
2013-03-26 06:39:00,32.5,24.3,29.93,West,270,2.0,4.0,71,0.00,,,0.00,meteohub,2013-03-26 10:39:00,
2013-03-26 06:44:00,32.5,24.3,29.93,North,0,2.0,4.0,71,0.00,,,0.00,meteohub,2013-03-26 10:44:00,
2013-03-26 06:49:00,32.5,24.3,29.93,NW,315,0.0,4.0,71,0.00,,,0.00,meteohub,2013-03-26 10:49:00,
2013-03-26 06:54:00,32.5,24.3,29.93,NW,315,2.0,3.0,71,0.00,,,0.00,meteohub,2013-03-26 10:54:00,
2013-03-26 07:00:00,32.5,24.3,29.94,NE,45,0.0,3.0,71,0.00,,,0.00,meteohub,2013-03-26 11:00:00,
2013-03-26 07:05:00,32.5,24.3,29.94,NE,45,2.0,3.0,71,0.00,,,0.00,meteohub,2013-03-26 11:05:00,
2013-03-26 07:10:00,32.5,24.3,29.94,NW,315,2.0,3.0,71,0.00,,,0.00,meteohub,2013-03-26 11:10:00,
2013-03-26 07:15:00,32.4,24.1,29.94,SW,225,0.0,3.0,71,0.00,,,0.00,meteohub,2013-03-26 11:15:00,
2013-03-26 07:20:00,32.4,24.3,29.94,NW,315,1.0,2.0,72,0.00,,,0.00,meteohub,2013-03-26 11:20:00,
2013-03-26 07:26:00,32.2,24.3,29.94,NW,315,0.0,1.0,72,0.00,,,0.00,meteohub,2013-03-26 11:26:00,
2013-03-26 07:31:00,32.2,24.3,29.94,North,0,2.0,2.0,72,0.00,,,0.00,meteohub,2013-03-26 11:31:00,
2013-03-26 07:36:00,32.2,24.3,29.95,NW,315,2.0,2.0,72,0.00,,,0.00,meteohub,2013-03-26 11:36:00,
2013-03-26 07:41:00,32.2,24.4,29.95,NNW,338,0.0,2.0,73,0.00,,,0.00,meteohub,2013-03-26 11:41:00,
2013-03-26 07:47:00,32.2,24.4,29.95,NW,315,3.0,3.0,73,0.00,,,0.00,meteohub,2013-03-26 11:47:00,
2013-03-26 07:52:00,32.2,24.4,29.95,NW,315,0.0,3.0,73,0.00,,,0.00,meteohub,2013-03-26 11:52:00,
2013-03-26 07:58:00,32.2,24.4,29.96,North,0,0.0,3.0,73,0.00,,,0.00,meteohub,2013-03-26 11:58:00,
2013-03-26 08:03:00,32.2,24.4,29.96,NW,315,1.0,4.0,73,0.00,,,0.00,meteohub,2013-03-26 12:03:00,
2013-03-26 08:08:00,32.2,24.4,29.96,NW,315,1.0,4.0,73,0.00,,,0.00,meteohub,2013-03-26 12:08:00,
2013-03-26 08:13:00,32.4,24.6,29.96,NW,315,0.0,2.0,73,0.00,,,0.00,meteohub,2013-03-26 12:13:00,
2013-03-26 08:18:00,32.4,24.6,29.96,North,0,0.0,4.0,73,0.00,,,0.00,meteohub,2013-03-26 12:18:00,
2013-03-26 08:24:00,32.4,25.0,29.96,NW,315,0.0,4.0,74,0.00,,,0.00,meteohub,2013-03-26 12:24:00,
2013-03-26 08:29:00,32.5,25.2,29.97,NW,315,3.0,4.0,74,0.00,,,0.00,meteohub,2013-03-26 12:29:00,
2013-03-26 08:34:00,32.5,25.2,29.97,NW,315,2.0,3.0,74,0.00,,,0.00,meteohub,2013-03-26 12:34:00,
2013-03-26 08:39:00,32.5,25.2,29.97,NW,315,2.0,4.0,74,0.00,,,0.00,meteohub,2013-03-26 12:39:00,
2013-03-26 08:44:00,32.7,25.3,29.97,NW,315,3.0,4.0,74,0.00,,,0.00,meteohub,2013-03-26 12:44:00,
2013-03-26 08:50:00,32.9,25.5,29.97,NW,315,2.0,4.0,74,0.00,,,0.00,meteohub,2013-03-26 12:50:00,
2013-03-26 08:55:00,32.9,25.5,29.97,North,0,3.0,4.0,74,0.00,,,0.00,meteohub,2013-03-26 12:55:00,
2013-03-26 09:00:00,33.1,25.7,29.98,North,0,2.0,4.0,74,0.00,,,0.00,meteohub,2013-03-26 13:00:00,
2013-03-26 09:05:00,33.1,25.7,29.98,North,0,2.0,4.0,74,0.00,,,0.00,meteohub,2013-03-26 13:05:00,
2013-03-26 09:10:00,33.3,25.9,29.98,North,0,2.0,4.0,74,0.00,,,0.00,meteohub,2013-03-26 13:10:00,
2013-03-26 09:15:00,33.4,26.1,29.98,NW,315,2.0,4.0,74,0.00,,,0.00,meteohub,2013-03-26 13:15:00,
2013-03-26 09:21:00,33.6,26.2,29.99,North,0,2.0,4.0,74,0.00,,,0.00,meteohub,2013-03-26 13:21:00,
2013-03-26 09:26:00,33.6,25.9,29.98,NW,315,1.0,4.0,73,0.00,,,0.00,meteohub,2013-03-26 13:26:00,
2013-03-26 09:31:00,33.8,25.7,29.98,NE,45,4.0,4.0,72,0.00,,,0.00,meteohub,2013-03-26 13:31:00,
2013-03-26 09:36:00,33.8,25.7,29.98,North,0,3.0,4.0,72,0.00,,,0.00,meteohub,2013-03-26 13:36:00,
2013-03-26 09:42:00,34.0,25.9,29.98,NW,315,3.0,4.0,72,0.00,,,0.00,meteohub,2013-03-26 13:42:00,
2013-03-26 09:47:00,34.2,26.1,29.99,NW,315,2.0,4.0,72,0.00,,,0.00,meteohub,2013-03-26 13:47:00,
2013-03-26 09:52:00,34.3,26.2,29.99,North,0,3.0,4.0,72,0.00,,,0.00,meteohub,2013-03-26 13:52:00,
2013-03-26 09:57:00,34.5,26.4,29.99,NW,315,4.0,4.0,72,0.00,,,0.00,meteohub,2013-03-26 13:57:00,
2013-03-26 10:02:00,34.5,26.1,29.99,NW,315,2.0,4.0,71,0.00,,,0.00,meteohub,2013-03-26 14:02:00,
2013-03-26 10:07:00,34.7,26.2,29.99,North,0,4.0,4.0,71,0.00,,,0.00,meteohub,2013-03-26 14:07:00,
2013-03-26 10:12:00,34.7,26.2,29.99,North,0,4.0,9.0,71,0.00,,,0.00,meteohub,2013-03-26 14:12:00,
2013-03-26 10:18:00,34.9,26.4,29.99,East,90,3.0,9.0,71,0.00,,,0.00,meteohub,2013-03-26 14:18:00,
2013-03-26 10:23:00,35.1,26.6,29.99,NW,315,2.0,9.0,71,0.00,,,0.00,meteohub,2013-03-26 14:23:00,
2013-03-26 10:28:00,35.2,26.8,29.99,West,270,2.0,4.0,71,0.00,,,0.00,meteohub,2013-03-26 14:28:00,
2013-03-26 10:33:00,35.4,26.6,29.99,NW,315,4.0,4.0,70,0.00,,,0.00,meteohub,2013-03-26 14:33:00,
2013-03-26 10:38:00,35.4,26.6,29.99,North,0,4.0,4.0,70,0.00,,,0.00,meteohub,2013-03-26 14:38:00,
2013-03-26 10:43:00,35.6,26.1,29.99,West,270,2.0,6.0,68,0.00,,,0.00,meteohub,2013-03-26 14:43:00,
2013-03-26 10:49:00,36.0,26.4,29.99,NW,315,2.0,6.0,68,0.00,,,0.00,meteohub,2013-03-26 14:49:00,
2013-03-26 10:54:00,36.3,26.8,29.99,North,0,4.0,6.0,68,0.00,,,0.00,meteohub,2013-03-26 14:54:00,
2013-03-26 10:59:00,36.7,26.8,29.99,NW,315,3.0,4.0,67,0.00,,,0.00,meteohub,2013-03-26 14:59:00,
2013-03-26 11:04:00,37.0,27.1,30.00,NW,315,4.0,4.0,67,0.00,,,0.00,meteohub,2013-03-26 15:04:00,
2013-03-26 11:10:00,37.4,28.6,30.00,North,0,4.0,4.0,70,0.00,,,0.00,meteohub,2013-03-26 15:10:00,
2013-03-26 11:15:00,37.4,28.6,30.00,NW,315,3.0,4.0,70,0.00,,,0.00,meteohub,2013-03-26 15:15:00,
2013-03-26 11:20:00,37.6,28.8,30.00,SW,225,3.0,6.0,70,0.00,,,0.00,meteohub,2013-03-26 15:20:00,
2013-03-26 11:25:00,37.8,28.6,30.00,West,270,4.0,6.0,69,0.00,,,0.00,meteohub,2013-03-26 15:25:00,
2013-03-26 11:30:00,38.1,28.9,30.00,North,0,2.0,6.0,69,0.00,,,0.00,meteohub,2013-03-26 15:30:00,
2013-03-26 11:36:00,38.7,29.3,30.00,NW,315,2.0,6.0,69,0.00,,,0.00,meteohub,2013-03-26 15:36:00,
2013-03-26 11:41:00,39.0,29.3,30.00,NE,45,4.0,4.0,68,0.00,,,0.00,meteohub,2013-03-26 15:41:00,
2013-03-26 11:46:00,39.2,28.8,30.00,NE,45,4.0,4.0,66,0.00,,,0.00,meteohub,2013-03-26 15:46:00,
2013-03-26 11:51:00,39.4,28.9,30.00,NW,315,4.0,4.0,66,0.00,,,0.00,meteohub,2013-03-26 15:51:00,
2013-03-26 11:56:00,39.6,28.8,30.00,NW,315,4.0,4.0,65,0.00,,,0.00,meteohub,2013-03-26 15:56:00,
2013-03-26 12:02:00,40.1,29.3,30.00,NW,315,6.0,6.0,65,0.00,,,0.00,meteohub,2013-03-26 16:02:00,
2013-03-26 12:07:00,40.6,29.8,30.00,North,0,2.0,6.0,65,0.00,,,0.00,meteohub,2013-03-26 16:07:00,
2013-03-26 12:12:00,40.8,29.7,30.00,North,0,4.0,6.0,64,0.00,,,0.00,meteohub,2013-03-26 16:12:00,
2013-03-26 12:17:00,41.2,29.5,30.00,SW,225,3.0,7.0,63,0.00,,,0.00,meteohub,2013-03-26 16:17:00,
2013-03-26 12:22:00,41.0,28.9,30.00,North,0,6.0,7.0,62,0.00,,,0.00,meteohub,2013-03-26 16:22:00,
2013-03-26 12:27:00,41.4,29.3,30.00,NE,45,7.0,11.0,62,0.00,,,0.00,meteohub,2013-03-26 16:27:00,
2013-03-26 12:33:00,41.7,29.7,30.00,West,270,3.0,11.0,62,0.00,,,0.00,meteohub,2013-03-26 16:33:00,
2013-03-26 12:38:00,42.3,29.8,30.00,North,0,4.0,7.0,61,0.00,,,0.00,meteohub,2013-03-26 16:38:00,
2013-03-26 12:43:00,41.5,28.8,30.00,North,0,6.0,7.0,60,0.00,,,0.00,meteohub,2013-03-26 16:43:00,
2013-03-26 12:48:00,40.8,29.1,30.00,West,270,7.0,7.0,63,0.00,,,0.00,meteohub,2013-03-26 16:48:00,
2013-03-26 12:53:00,41.0,29.3,30.00,North,0,4.0,8.0,63,0.00,,,0.00,meteohub,2013-03-26 16:53:00,
2013-03-26 12:59:00,41.9,30.2,30.00,NW,315,4.0,8.0,63,0.00,,,0.00,meteohub,2013-03-26 16:59:00,
2013-03-26 13:04:00,42.1,30.4,30.00,NW,315,5.0,8.0,63,0.00,,,0.00,meteohub,2013-03-26 17:04:00,
2013-03-26 13:09:00,43.0,30.9,30.00,West,270,7.0,7.0,62,0.00,,,0.00,meteohub,2013-03-26 17:09:00,
2013-03-26 13:14:00,43.3,30.7,30.00,NW,315,4.0,5.0,61,0.00,,,0.00,meteohub,2013-03-26 17:14:00,
2013-03-26 13:19:00,43.3,30.0,30.00,North,0,6.0,8.0,59,0.00,,,0.00,meteohub,2013-03-26 17:19:00,
2013-03-26 13:25:00,42.8,29.8,30.00,North,0,6.0,9.0,60,0.00,,,0.00,meteohub,2013-03-26 17:25:00,
2013-03-26 13:30:00,42.3,29.3,30.00,North,0,3.0,9.0,60,0.00,,,0.00,meteohub,2013-03-26 17:30:00,
2013-03-26 13:35:00,42.1,29.1,30.00,NW,315,3.0,9.0,60,0.00,,,0.00,meteohub,2013-03-26 17:35:00,
2013-03-26 13:40:00,42.3,29.8,30.00,North,0,5.0,8.0,61,0.00,,,0.00,meteohub,2013-03-26 17:40:00,
2013-03-26 13:45:00,42.3,29.3,29.99,NW,315,4.0,10.0,60,0.00,,,0.00,meteohub,2013-03-26 17:45:00,
2013-03-26 13:51:00,43.3,30.0,29.99,North,0,4.0,10.0,59,0.00,,,0.00,meteohub,2013-03-26 17:51:00,
2013-03-26 13:56:00,43.9,29.1,29.99,NW,315,3.0,11.0,56,0.00,,,0.00,meteohub,2013-03-26 17:56:00,
2013-03-26 14:01:00,44.2,30.0,29.99,North,0,7.0,11.0,57,0.00,,,0.00,meteohub,2013-03-26 18:01:00,
2013-03-26 14:06:00,45.0,29.3,29.99,NW,315,4.0,11.0,54,0.00,,,0.00,meteohub,2013-03-26 18:06:00,
2013-03-26 14:12:00,44.4,28.4,29.99,NE,45,5.0,11.0,53,0.00,,,0.00,meteohub,2013-03-26 18:12:00,
2013-03-26 14:17:00,43.3,27.0,29.99,North,0,6.0,11.0,52,0.00,,,0.00,meteohub,2013-03-26 18:17:00,
2013-03-26 14:22:00,42.3,26.8,29.99,NW,315,3.0,9.0,54,0.00,,,0.00,meteohub,2013-03-26 18:22:00,
2013-03-26 14:27:00,42.3,27.3,29.99,SW,225,4.0,9.0,55,0.00,,,0.00,meteohub,2013-03-26 18:27:00,
2013-03-26 14:32:00,42.1,27.1,29.99,NE,45,3.0,8.0,55,0.00,,,0.00,meteohub,2013-03-26 18:32:00,
2013-03-26 14:37:00,42.4,27.5,29.99,NW,315,4.0,5.0,55,0.00,,,0.00,meteohub,2013-03-26 18:37:00,
2013-03-26 14:42:00,42.8,26.4,29.99,North,0,4.0,5.0,52,0.00,,,0.00,meteohub,2013-03-26 18:42:00,
2013-03-26 14:47:00,42.4,26.6,29.99,NE,45,4.0,6.0,53,0.00,,,0.00,meteohub,2013-03-26 18:47:00,
2013-03-26 14:52:00,41.9,27.0,29.99,NW,315,4.0,6.0,55,0.00,,,0.00,meteohub,2013-03-26 18:52:00,
2013-03-26 14:57:00,41.2,27.1,29.99,West,270,4.0,5.0,57,0.00,,,0.00,meteohub,2013-03-26 18:57:00,
2013-03-26 15:02:00,40.6,27.9,29.99,North,0,2.0,5.0,60,0.00,,,0.00,meteohub,2013-03-26 19:02:00,
2013-03-26 15:07:00,40.5,28.0,29.99,West,270,2.0,4.0,61,0.00,,,0.00,meteohub,2013-03-26 19:07:00,
2013-03-26 15:12:00,40.6,27.9,29.99,NW,315,2.0,4.0,60,0.00,,,0.00,meteohub,2013-03-26 19:12:00,
2013-03-26 15:17:00,41.0,27.9,29.99,NW,315,2.0,4.0,59,0.00,,,0.00,meteohub,2013-03-26 19:17:00,
2013-03-26 15:22:00,41.2,27.1,29.99,North,0,3.0,4.0,57,0.00,,,0.00,meteohub,2013-03-26 19:22:00,
2013-03-26 15:28:00,41.4,27.3,29.99,NW,315,3.0,4.0,57,0.00,,,0.00,meteohub,2013-03-26 19:28:00,
2013-03-26 15:33:00,41.7,26.8,29.99,NW,315,3.0,4.0,55,0.00,,,0.00,meteohub,2013-03-26 19:33:00,
2013-03-26 15:38:00,41.9,26.4,29.99,North,0,3.0,4.0,54,0.00,,,0.00,meteohub,2013-03-26 19:38:00,
2013-03-26 15:43:00,41.9,26.4,29.99,NW,315,3.0,5.0,54,0.00,,,0.00,meteohub,2013-03-26 19:43:00,
2013-03-26 15:48:00,41.7,26.2,29.99,NW,315,2.0,5.0,54,0.00,,,0.00,meteohub,2013-03-26 19:48:00,
2013-03-26 15:54:00,41.5,26.1,30.00,NW,315,3.0,5.0,54,0.00,,,0.00,meteohub,2013-03-26 19:54:00,
2013-03-26 15:59:00,41.2,26.2,30.00,NNE,23,4.0,5.0,55,0.00,,,0.00,meteohub,2013-03-26 19:59:00,
2013-03-26 16:04:00,40.8,25.9,29.99,West,270,2.0,7.0,55,0.00,,,0.00,meteohub,2013-03-26 20:04:00,
2013-03-26 16:09:00,40.6,26.2,30.00,NW,315,3.0,7.0,56,0.00,,,0.00,meteohub,2013-03-26 20:09:00,
2013-03-26 16:14:00,40.5,26.1,30.00,NW,315,2.0,7.0,56,0.00,,,0.00,meteohub,2013-03-26 20:14:00,
2013-03-26 16:19:00,40.5,25.5,30.00,NE,45,2.0,4.0,55,0.00,,,0.00,meteohub,2013-03-26 20:19:00,
2013-03-26 16:25:00,40.3,25.3,30.00,NW,315,2.0,4.0,55,0.00,,,0.00,meteohub,2013-03-26 20:25:00,
2013-03-26 16:30:00,40.3,25.3,30.00,West,270,2.0,4.0,55,0.00,,,0.00,meteohub,2013-03-26 20:30:00,
2013-03-26 16:35:00,40.3,25.0,30.00,North,0,2.0,4.0,54,0.00,,,0.00,meteohub,2013-03-26 20:35:00,
2013-03-26 16:40:00,40.1,25.2,30.00,North,0,3.0,4.0,55,0.00,,,0.00,meteohub,2013-03-26 20:40:00,
2013-03-26 16:46:00,39.9,25.0,30.00,NW,315,1.0,4.0,55,0.00,,,0.00,meteohub,2013-03-26 20:46:00,
2013-03-26 16:51:00,39.9,25.5,30.00,West,270,0.0,4.0,56,0.00,,,0.00,meteohub,2013-03-26 20:51:00,
2013-03-26 16:56:00,39.9,25.9,30.00,NW,315,2.0,3.0,57,0.00,,,0.00,meteohub,2013-03-26 20:56:00,
2013-03-26 17:01:00,39.9,26.4,30.01,NW,315,0.0,3.0,58,0.00,,,0.00,meteohub,2013-03-26 21:01:00,
2013-03-26 17:06:00,39.9,26.4,30.00,SW,225,2.0,3.0,58,0.00,,,0.00,meteohub,2013-03-26 21:06:00,
2013-03-26 17:12:00,39.7,26.2,30.01,North,0,2.0,4.0,58,0.00,,,0.00,meteohub,2013-03-26 21:12:00,
2013-03-26 17:17:00,39.7,26.2,30.01,NE,45,0.0,4.0,58,0.00,,,0.00,meteohub,2013-03-26 21:17:00,
2013-03-26 17:22:00,39.7,26.2,30.01,West,270,0.0,4.0,58,0.00,,,0.00,meteohub,2013-03-26 21:22:00,
2013-03-26 17:27:00,39.6,26.1,30.01,NW,315,2.0,2.0,58,0.00,,,0.00,meteohub,2013-03-26 21:27:00,
2013-03-26 17:32:00,39.6,25.5,30.01,West,270,0.0,3.0,57,0.00,,,0.00,meteohub,2013-03-26 21:32:00,
2013-03-26 17:38:00,39.6,25.5,30.01,West,270,2.0,3.0,57,0.00,,,0.00,meteohub,2013-03-26 21:38:00,
2013-03-26 17:43:00,39.6,26.1,30.01,NW,315,2.0,4.0,58,0.00,,,0.00,meteohub,2013-03-26 21:43:00,
2013-03-26 17:48:00,39.4,25.9,30.01,West,270,2.0,4.0,58,0.00,,,0.00,meteohub,2013-03-26 21:48:00,
2013-03-26 17:53:00,39.4,25.9,30.01,NW,315,0.0,4.0,58,0.00,,,0.00,meteohub,2013-03-26 21:53:00,
2013-03-26 17:58:00,39.4,25.9,30.01,SW,225,2.0,4.0,58,0.00,,,0.00,meteohub,2013-03-26 21:58:00,
2013-03-26 18:03:00,39.4,25.9,30.01,SW,225,2.0,3.0,58,0.00,,,0.00,meteohub,2013-03-26 22:03:00,
2013-03-26 18:08:00,39.2,25.7,30.01,NW,315,2.0,3.0,58,0.00,,,0.00,meteohub,2013-03-26 22:08:00,
2013-03-26 18:14:00,39.0,25.9,30.01,SW,225,2.0,4.0,59,0.00,,,0.00,meteohub,2013-03-26 22:14:00,
2013-03-26 18:19:00,39.0,26.2,30.01,West,270,2.0,4.0,60,0.00,,,0.00,meteohub,2013-03-26 22:19:00,
2013-03-26 18:24:00,39.0,26.8,30.01,West,270,2.0,4.0,61,0.00,,,0.00,meteohub,2013-03-26 22:24:00,
2013-03-26 18:29:00,32.0,12.6,30.01,NNW,338,0.0,3.0,44,0.00,,,0.00,meteohub,2013-03-26 22:29:00,
2013-03-26 18:34:00,38.8,27.0,30.01,West,270,2.0,4.0,62,0.00,,,0.00,meteohub,2013-03-26 22:34:00,
2013-03-26 18:40:00,38.8,27.3,30.01,West,270,2.0,4.0,63,0.00,,,0.00,meteohub,2013-03-26 22:40:00,
2013-03-26 18:45:00,38.7,27.1,30.02,North,0,2.0,4.0,63,0.00,,,0.00,meteohub,2013-03-26 22:45:00,
2013-03-26 18:50:00,38.7,27.1,30.02,NW,315,2.0,4.0,63,0.00,,,0.00,meteohub,2013-03-26 22:50:00,
2013-03-26 18:55:00,38.7,26.8,30.02,SW,225,2.0,4.0,62,0.00,,,0.00,meteohub,2013-03-26 22:55:00,
2013-03-26 19:00:00,38.7,26.8,30.02,SW,225,0.0,2.0,62,0.00,,,0.00,meteohub,2013-03-26 23:00:00,
2013-03-26 19:06:00,38.5,26.6,30.02,NW,315,0.0,4.0,62,0.00,,,0.00,meteohub,2013-03-26 23:06:00,
2013-03-26 19:11:00,38.5,26.6,30.02,NE,45,2.0,4.0,62,0.00,,,0.00,meteohub,2013-03-26 23:11:00,
2013-03-26 19:16:00,38.3,26.1,30.02,West,270,0.0,4.0,61,0.00,,,0.00,meteohub,2013-03-26 23:16:00,
2013-03-26 19:22:00,38.3,26.1,30.03,NW,315,0.0,3.0,61,0.00,,,0.00,meteohub,2013-03-26 23:22:00,
2013-03-26 19:27:00,38.1,26.2,30.03,NW,315,2.0,2.0,62,0.00,,,0.00,meteohub,2013-03-26 23:27:00,
2013-03-26 19:32:00,37.9,26.1,30.03,West,270,0.0,2.0,62,0.00,,,0.00,meteohub,2013-03-26 23:32:00,
2013-03-26 19:37:00,37.8,25.9,30.03,SW,225,0.0,2.0,62,0.00,,,0.00,meteohub,2013-03-26 23:37:00,
2013-03-26 19:42:00,37.8,25.9,30.04,West,270,0.0,2.0,62,0.00,,,0.00,meteohub,2013-03-26 23:42:00,
2013-03-26 19:48:00,37.6,25.7,30.03,West,270,0.0,0.0,62,0.00,,,0.00,meteohub,2013-03-26 23:48:00,
2013-03-26 19:53:00,37.4,25.9,30.03,NW,315,0.0,0.0,63,0.00,,,0.00,meteohub,2013-03-26 23:53:00,
2013-03-26 19:58:00,37.4,25.9,30.04,NW,315,2.0,0.0,63,0.00,,,0.00,meteohub,2013-03-26 23:58:00,
2013-03-26 20:03:00,37.2,24.3,30.04,West,270,0.0,2.0,59,0.00,,,0.00,meteohub,2013-03-27 00:03:00,
2013-03-26 20:08:00,37.2,24.6,30.04,West,270,0.0,2.0,60,0.00,,,0.00,meteohub,2013-03-27 00:08:00,
2013-03-26 20:13:00,37.0,24.8,30.04,SW,225,2.0,2.0,61,0.00,,,0.00,meteohub,2013-03-27 00:13:00,
2013-03-26 20:19:00,37.0,24.8,30.04,West,270,2.0,4.0,61,0.00,,,0.00,meteohub,2013-03-27 00:19:00,
2013-03-26 20:24:00,36.9,25.0,30.04,West,270,2.0,4.0,62,0.00,,,0.00,meteohub,2013-03-27 00:24:00,
2013-03-26 20:29:00,36.9,25.0,30.04,WNW,293,2.0,4.0,62,0.00,,,0.00,meteohub,2013-03-27 00:29:00,
2013-03-26 20:34:00,36.7,25.0,30.04,West,270,2.0,4.0,62,0.00,,,0.00,meteohub,2013-03-27 00:34:00,
2013-03-26 20:39:00,36.7,25.3,30.04,South,180,5.0,5.0,63,0.00,,,0.00,meteohub,2013-03-27 00:39:00,
2013-03-26 20:44:00,36.7,25.3,30.05,West,270,4.0,6.0,63,0.00,,,0.00,meteohub,2013-03-27 00:44:00,
2013-03-26 20:50:00,36.3,25.7,30.05,SW,225,4.0,6.0,65,0.00,,,0.00,meteohub,2013-03-27 00:50:00,
2013-03-26 20:55:00,35.4,26.6,30.05,West,270,2.0,8.0,70,0.00,,,0.00,meteohub,2013-03-27 00:55:00,
2013-03-26 21:00:00,35.1,27.0,30.05,West,270,4.0,8.0,72,0.00,,,0.00,meteohub,2013-03-27 01:00:00,
2013-03-26 21:05:00,34.5,27.1,30.05,North,0,1.0,8.0,74,0.00,,,0.00,meteohub,2013-03-27 01:05:00,
2013-03-26 21:10:00,34.3,27.0,30.06,West,270,2.0,5.0,74,0.00,,,0.00,meteohub,2013-03-27 01:10:00,
2013-03-26 21:15:00,34.2,27.1,30.06,SW,225,0.0,4.0,75,0.00,,,0.00,meteohub,2013-03-27 01:15:00,
2013-03-26 21:20:00,34.0,27.1,30.05,NW,315,0.0,4.0,76,0.00,,,0.00,meteohub,2013-03-27 01:20:00,
2013-03-26 21:26:00,33.8,27.0,30.06,West,270,4.0,4.0,76,0.00,,,0.00,meteohub,2013-03-27 01:26:00,
2013-03-26 21:31:00,33.8,27.0,30.06,NW,315,2.0,4.0,76,0.00,,,0.00,meteohub,2013-03-27 01:31:00,
2013-03-26 21:37:00,33.8,27.0,30.06,NW,315,2.0,4.0,76,0.00,,,0.00,meteohub,2013-03-27 01:37:00,
2013-03-26 21:42:00,33.8,27.3,30.06,West,270,0.0,4.0,77,0.00,,,0.00,meteohub,2013-03-27 01:42:00,
2013-03-26 21:47:00,33.6,27.5,30.06,SW,225,3.0,3.0,78,0.00,,,0.00,meteohub,2013-03-27 01:47:00,
2013-03-26 21:52:00,33.6,27.5,30.06,NW,315,0.0,3.0,78,0.00,,,0.00,meteohub,2013-03-27 01:52:00,
2013-03-26 21:57:00,33.6,27.9,30.06,NW,315,0.0,3.0,79,0.00,,,0.00,meteohub,2013-03-27 01:57:00,
2013-03-26 22:02:00,33.6,27.9,30.06,SW,225,0.0,3.0,79,0.00,,,0.00,meteohub,2013-03-27 02:02:00,
2013-03-26 22:07:00,33.6,27.9,30.06,SW,225,0.0,0.0,79,0.00,,,0.00,meteohub,2013-03-27 02:07:00,
2013-03-26 22:12:00,33.8,27.7,30.06,North,0,0.0,1.0,78,0.00,,,0.00,meteohub,2013-03-27 02:12:00,
2013-03-26 22:17:00,33.8,27.7,30.06,West,270,0.0,1.0,78,0.00,,,0.00,meteohub,2013-03-27 02:17:00,
2013-03-26 22:22:00,33.8,27.7,30.06,NW,315,0.0,1.0,78,0.00,,,0.00,meteohub,2013-03-27 02:22:00,
2013-03-26 22:27:00,33.8,27.7,30.06,SW,225,0.0,0.0,78,0.00,,,0.00,meteohub,2013-03-27 02:27:00,
2013-03-26 22:33:00,33.8,27.7,30.07,NW,315,0.0,2.0,78,0.00,,,0.00,meteohub,2013-03-27 02:33:00,
2013-03-26 22:38:00,33.8,27.7,30.07,SW,225,2.0,2.0,78,0.00,,,0.00,meteohub,2013-03-27 02:38:00,
2013-03-26 22:43:00,33.8,27.7,30.06,West,270,2.0,2.0,78,0.00,,,0.00,meteohub,2013-03-27 02:43:00,
2013-03-26 22:48:00,34.0,27.9,30.07,NW,315,2.0,3.0,78,0.00,,,0.00,meteohub,2013-03-27 02:48:00,
2013-03-26 22:54:00,33.8,27.7,30.07,NW,315,1.0,3.0,78,0.00,,,0.00,meteohub,2013-03-27 02:54:00,
2013-03-26 22:59:00,33.8,27.7,30.06,West,270,0.0,3.0,78,0.00,,,0.00,meteohub,2013-03-27 02:59:00,
2013-03-26 23:04:00,33.8,27.7,30.07,NW,315,0.0,2.0,78,0.00,,,0.00,meteohub,2013-03-27 03:04:00,
2013-03-26 23:09:00,33.8,27.7,30.06,West,270,0.0,2.0,78,0.00,,,0.00,meteohub,2013-03-27 03:09:00,
2013-03-26 23:14:00,33.8,27.7,30.07,NW,315,0.0,2.0,78,0.00,,,0.00,meteohub,2013-03-27 03:14:00,
2013-03-26 23:19:00,33.8,27.7,30.07,NW,315,0.0,0.0,78,0.00,,,0.00,meteohub,2013-03-27 03:19:00,
2013-03-26 23:24:00,33.8,28.0,30.06,SW,225,0.0,0.0,79,0.00,,,0.00,meteohub,2013-03-27 03:24:00,
2013-03-26 23:30:00,33.8,28.0,30.07,West,270,2.0,2.0,79,0.00,,,0.00,meteohub,2013-03-27 03:30:00,
2013-03-26 23:35:00,33.8,28.0,30.07,West,270,0.0,3.0,79,0.00,,,0.00,meteohub,2013-03-27 03:35:00,
2013-03-26 23:40:00,33.8,28.0,30.07,West,270,0.0,3.0,79,0.00,,,0.00,meteohub,2013-03-27 03:40:00,
2013-03-26 23:45:00,33.6,28.0,30.07,West,270,2.0,2.0,80,0.00,,,0.00,meteohub,2013-03-27 03:45:00,
2013-03-26 23:50:00,33.6,28.0,30.07,NW,315,2.0,2.0,80,0.00,,,0.00,meteohub,2013-03-27 03:50:00,
2013-03-26 23:55:00,33.6,28.4,30.07,NW,315,2.0,2.0,81,0.00,,,0.00,meteohub,2013-03-27 03:55:00,